CW7364 Weather Reports


Display with metric or nautical units.
time (UTC)temp
F
wind
direction
speed
MPH
gust
MPH
rain 1hr
in
rain 24hr
in
rain mn
in
humidity
%
barometer
mb
20260506034535 58 23 4.0 9.0 0.00 0.00 0.00 81 1008.9
20260506033535 58 0 4.0 12.0 0.00 0.00 0.00 81 1009.0
20260506032515 59 0 3.0 11.0 0.00 0.00 0.00 80 1008.9
20260506031517 59 23 5.0 12.0 0.00 0.00 0.00 80 1008.5
20260506030517 59 23 6.0 13.0 0.00 0.00 0.00 80 1008.3
20260506025517 60 23 7.0 13.0 0.00 0.00 0.00 80 1008.2
20260506024517 60 23 6.0 14.0 0.00 0.00 0.00 79 1008.1
20260506023517 61 23 5.0 9.0 0.00 0.00 0.00 79 1008.2
20260506022517 61 0 4.0 10.0 0.00 0.00 0.00 79 1007.7
20260506021517 62 23 4.0 9.0 0.00 0.00 0.00 78 1007.5
20260506020517 62 23 3.0 8.0 0.00 0.00 0.00 78 1007.0
20260506015517 62 23 3.0 10.0 0.00 0.00 0.00 78 1006.6
20260506014517 63 23 3.0 8.0 0.00 0.00 0.00 77 1006.1
20260506013517 63 0 4.0 10.0 0.00 0.00 0.00 77 1005.6
20260506012517 64 0 3.0 8.0 0.00 0.00 0.00 76 1005.2
20260506011517 64 0 4.0 9.0 0.00 0.00 0.00 76 1005.5
20260506010537 65 23 3.0 7.0 0.00 0.00 0.00 75 1004.9
20260506005517 66 23 3.0 9.0 0.00 0.00 0.00 75 1005.0
20260506004517 66 0 2.0 6.0 0.00 0.00 0.00 75 1004.9
20260506003516 66 293 4.0 10.0 0.00 0.00 0.00 75 1004.9
20260506002518 66 293 3.0 10.0 0.00 0.00 0.00 74 1005.1
20260506001516 67 270 2.0 5.0 0.00 0.00 0.00 74 1004.8
20260506000517 67 315 3.0 9.0 0.00 0.00 0.00 73 1004.8
20260505235516 67 293 3.0 10.0 0.00 0.00 0.00 73 1004.8
20260505234517 68 293 6.0 14.0 0.00 0.00 0.00 72 1004.9
20260505233516 69 315 4.0 9.0 0.00 0.00 0.00 71 1004.7
20260505232516 70 293 6.0 16.0 0.00 0.00 0.00 72 1004.9
20260505231517 71 293 4.0 11.0 0.00 0.00 0.00 71 1004.5
20260505230556 72 293 4.0 10.0 0.00 0.00 0.00 70 1004.4
20260505225516 73 293 8.0 12.0 0.00 0.00 0.00 70 1004.6
20260505224517 73 293 8.0 15.0 0.00 0.00 0.00 69 1004.5
20260505223516 74 293 10.0 15.0 0.00 0.00 0.00 69 1004.4
20260505222516 75 293 10.0 16.0 0.00 0.00 0.00 68 1004.3
20260505221516 76 293 7.0 13.0 0.00 0.00 0.00 67 1004.2
20260505220516 77 293 10.0 16.0 0.00 0.00 0.00 65 1004.1
20260505215516 78 293 5.0 13.0 0.00 0.00 0.00 65 1003.9
20260505214516 79 293 10.0 15.0 0.00 0.00 0.00 64 1003.9
20260505213516 79 293 6.0 12.0 0.00 0.00 0.00 67 1003.7
20260505212516 80 293 9.0 13.0 0.00 0.00 0.00 63 1004.0
20260505211516 80 293 8.0 11.0 0.00 0.00 0.00 63 1003.7
20260505210536 81 293 9.0 14.0 0.00 0.00 0.00 61 1004.1
20260505205516 81 293 9.0 15.0 0.00 0.00 0.00 62 1004.2
20260505204516 82 293 10.0 15.0 0.00 0.00 0.00 62 1004.2
20260505203516 82 293 10.0 15.0 0.00 0.00 0.00 61 1004.4
20260505202516 81 293 12.0 18.0 0.00 0.00 0.00 61 1004.4
20260505201516 83 293 11.0 16.0 0.00 0.00 0.00 58 1004.5
20260505200556 83 293 11.0 16.0 0.00 0.00 0.00 52 1004.2
20260505195516 82 293 10.0 16.0 0.00 0.00 0.00 50 1004.3
20260505194515 83 293 12.0 17.0 0.00 0.00 0.00 49 1004.3
20260505193516 83 293 11.0 17.0 0.00 0.00 0.00 50 1004.0
20260505192516 87 293 10.0 21.0 0.00 0.00 0.00 46 1004.1
20260505191535 87 270 4.0 12.0 0.00 0.00 0.00 54 1004.1
20260505190516 87 248 3.0 12.0 0.00 0.00 0.00 58 1004.0
20260505185555 86 225 3.0 6.0 0.00 0.00 0.00 57 1004.0
20260505184515 85 248 4.0 12.0 0.00 0.00 0.00 59 1003.9
20260505183516 85 248 3.0 7.0 0.00 0.00 0.00 65 1004.0
20260505182515 84 248 1.0 3.0 0.00 0.00 0.00 66 1004.0
20260505181517 83 203 2.0 4.0 0.00 0.00 0.00 68 1004.1
20260505180515 82 225 3.0 6.0 0.00 0.00 0.00 66 1004.0
20260505175616 83 225 3.0 8.0 0.00 0.00 0.00 66 1004.1
20260505174515 82 225 3.0 5.0 0.00 0.00 0.00 66 1003.9
20260505173515 82 225 5.0 9.0 0.00 0.00 0.00 65 1003.9
20260505172515 83 225 4.0 7.0 0.00 0.00 0.00 66 1003.9
20260505171537 82 225 5.0 8.0 0.00 0.00 0.00 68 1003.6
20260505170517 82 225 4.0 7.0 0.00 0.00 0.00 71 1003.6
20260505165517 81 225 5.0 9.0 0.00 0.00 0.00 70 1003.6
20260505164517 79 225 4.0 7.0 0.00 0.00 0.00 76 1003.7
20260505163557 77 225 5.0 7.0 0.00 0.00 0.00 75 1003.5
20260505162515 77 225 4.0 7.0 0.00 0.00 0.00 76 1003.4
20260505161517 77 203 4.0 8.0 0.00 0.00 0.00 76 1003.3
20260505160517 76 203 4.0 7.0 0.00 0.00 0.00 76 1003.3
20260505152537 76 225 3.0 6.0 0.00 0.00 0.00 76 1003.1
20260505151537 75 203 5.0 9.0 0.00 0.00 0.00 76 1003.2
20260505150517 76 225 3.0 8.0 0.00 0.00 0.00 77 1003.0
20260505140557 72 203 5.0 9.0 0.00 0.00 0.00 82 1002.8
20260505124516 69 203 5.0 9.0 0.00 0.00 0.00 84 1002.8
20260505123516 69 180 2.0 5.0 0.00 0.00 0.00 85 1002.6
20260505122516 69 180 4.0 6.0 0.00 0.00 0.00 85 1002.3
20260505121516 69 203 4.0 7.0 0.00 0.00 0.00 85 1002.0
20260505120516 68 180 4.0 7.0 0.00 0.00 0.00 85 1001.9
20260505115516 68 180 4.0 8.0 0.00 0.00 0.00 85 1002.0
20260505114516 68 180 4.0 6.0 0.00 0.00 0.00 85 1002.0
20260505113516 68 180 4.0 5.0 0.00 0.00 0.00 85 1001.9
20260505112517 68 180 3.0 6.0 0.00 0.00 0.00 84 1001.9
20260505111516 68 180 3.0 6.0 0.00 0.00 0.00 84 1002.1
20260505110516 69 180 3.0 6.0 0.00 0.00 0.00 84 1002.1
20260505101516 70 203 4.0 7.0 0.00 0.00 0.00 82 1002.2
20260505100515 70 203 5.0 10.0 0.00 0.00 0.00 82 1002.2
20260505095516 70 180 5.0 10.0 0.00 0.00 0.00 82 1002.2
20260505094516 70 180 4.0 9.0 0.00 0.00 0.00 82 1002.2
20260505093515 70 180 4.0 7.0 0.00 0.00 0.00 81 1002.1
20260505092515 70 180 5.0 8.0 0.00 0.00 0.00 81 1002.1
20260505091515 70 180 5.0 8.0 0.00 0.00 0.00 81 1002.1
20260505090516 71 180 5.0 9.0 0.00 0.00 0.00 80 1002.2
20260505085516 71 180 4.0 9.0 0.00 0.00 0.00 80 1002.3
20260505084515 71 180 4.0 8.0 0.00 0.00 0.00 79 1002.4
20260505083515 72 180 4.0 8.0 0.00 0.00 0.00 78 1002.4
20260505082515 72 180 5.0 10.0 0.00 0.00 0.00 77 1002.4
20260505081515 73 180 7.0 12.0 0.00 0.00 0.00 77 1002.3
20260505080535 73 180 6.0 11.0 0.00 0.00 0.00 77 1002.5
20260505075515 73 180 7.0 11.0 0.00 0.00 0.00 76 1002.6
20260505074515 73 180 6.0 10.0 0.00 0.00 0.00 77 1002.5
20260505073517 73 180 6.0 12.0 0.00 0.00 0.00 76 1002.8
20260505072517 73 180 5.0 10.0 0.00 0.00 0.00 76 1003.0
20260505071517 73 180 6.0 12.0 0.00 0.00 0.00 76 1003.4
20260505070537 73 180 6.0 9.0 0.00 0.00 0.00 76 1003.7
20260505065517 73 180 6.0 13.0 0.00 0.00 0.00 76 1003.6
20260505064517 73 180 5.0 9.0 0.00 0.00 0.00 76 1003.7
20260505063517 73 180 6.0 12.0 0.00 0.00 0.00 76 1003.8
20260505062517 73 180 5.0 9.0 0.00 0.00 0.00 76 1003.9
20260505061517 73 180 7.0 13.0 0.00 0.00 0.00 75 1003.9
20260505060517 73 180 7.0 14.0 0.00 0.00 0.00 75 1003.8
20260505055537 74 180 8.0 16.0 0.00 0.00 0.00 75 1004.0
20260505054517 74 180 7.0 10.0 0.00 0.00 0.00 75 1004.0
20260505053517 74 180 8.0 14.0 0.00 0.00 0.00 75 1004.0
20260505052517 74 180 8.0 12.0 0.00 0.00 0.00 75 1004.0
20260505051517 74 180 7.0 17.0 0.00 0.00 0.00 75 1003.9
20260505050516 74 180 7.0 11.0 0.00 0.00 0.00 75 1003.9
20260505041515 73 180 6.0 14.0 0.00 0.00 0.00 76 1004.0
20260505040515 73 180 6.0 10.0 0.00 0.00 0.00 77 1004.1
20260505035517 73 158 5.0 10.0 0.00 0.00 0.00 77 1004.1